{"data":{"norad_id":58002,"intl_designator":"2023-153M","name":"STARLINK-30540","alt_names":[],"object_type":"PAYLOAD","status":"ACTIVE","operator":null,"country":"US","launch_date":"2023-10-05","launch_site_code":"AFETR","launch_vehicle":null,"mission":null,"orbit_class":"UNKNOWN","rcs_meters":null,"size_class":null,"mass_kg":null,"dimensions":null,"purposes":["comms"],"wikipedia_slug":null,"has_3d_model":false,"image_url":null,"decayed_at":null,"tle_current":{"epoch":"2026-05-24T23:03:50.956416Z","epoch_age_seconds":71731,"freshness":"FRESH","line1":"1 58002U 23153M   26144.96100644  .00001050  00000+0  47679-4 0  9998","line2":"2 58002  43.0050 356.0798 0001544 266.2562  93.8114 15.27579985146465","mean_motion":15.27579985,"eccentricity":0.0001544,"inclination_deg":43.005,"raan_deg":356.0798,"arg_perigee_deg":266.2562,"mean_anomaly_deg":93.8114,"bstar":4.7679e-5,"rev_number":14646,"period_min":94.2667496393,"perigee_km":481.98977381488,"apogee_km":484.10850809521,"semimajor_km":6861.186140955,"source":"CELESTRAK","updated_at":"2026-05-25T13:38:18.491700Z"}}}